Weather History for Montreal Mirabel, QC

Change the Weather History Date:

Tuesday, February 19, 2013

  Actual Average Record
Temperature  
Mean Temperature 14 °F -  
Max Temperature 24 °F 23 °F 42 °F (1997)
Min Temperature 5 °F 6 °F -11 °F (2007)
Degree Days  
Heating Degree Days 50    
Moisture  
Dew Point 10 °F    
Average Humidity 73    
Maximum Humidity 93    
Minimum Humidity 59    
Precipitation  
Precipitation 0.00 in - - ()
Sea Level Pressure  
Sea Level Pressure 29.83 in    
Wind  
Wind Speed 5 mph ()    
Max Wind Speed 15 mph    
Max Gust Speed 25 mph    
Visibility 5.7 miles    
Events Snow    
Averages and records for this station are not official NWS values.
T = Trace of Precipitation, MM = Missing Value Source: Averaged Metar Reports

Daily Weather History Graph

Daily Weather History Graph

Search for Another Location

Airport:

Trip Planner

Search our weather history database for the weather conditions in past years. The results will help you decide how hot, cold, wet, or windy it might be!

Date:

Astronomy

Feb. 19, 2013 Rise Set
Actual Time 6:51 AM EST 5:29 PM EST
Civil Twilight 6:21 AM EST 5:59 PM EST
Nautical Twilight 5:46 AM EST 6:34 PM EST
Astronomical Twilight 5:12 AM EST 7:08 PM EST
Moon 11:49 AM EST (2/19) 2:30 AM EST (2/19)
Length of Visible Light 11h 38m
Length of Day
10h 37m
Waxing Gibbous, 67% of the Moon is Illuminated
Feb 19
Waxing Gibbous
Feb 25
Full
Mar 4
Last Quarter
Mar 11
New
Mar 19
First Quarter

Hourly Weather History & Observations

Time (EST) Temp. Windchill Dew Point Humidity Pressure Visibility Wind Dir Wind Speed Gust Speed Precip Events Conditions
12:00 AM 6.8 °F - -0.4 °F 72% 30.13 in 25.0 mi Calm Calm - N/A   Scattered Clouds
1:00 AM 5.0 °F - -2.2 °F 72% 30.14 in 25.0 mi Calm Calm - N/A   Mostly Cloudy
2:00 AM 6.8 °F - -0.4 °F 72% 30.14 in 25.0 mi Calm Calm - N/A   Mostly Cloudy
3:00 AM 8.6 °F 2.0 °F 1.4 °F 73% 30.12 in 25.0 mi East 3.5 mph - N/A   Mostly Cloudy
4:00 AM 10.4 °F - 1.4 °F 67% 30.09 in 25.0 mi NE 2.3 mph - N/A   Mostly Cloudy
6:00 AM 12.2 °F -0.2 °F 1.4 °F 62% 30.04 in 25.0 mi NE 9.2 mph - N/A   Overcast
7:00 AM 12.2 °F 0.7 °F 5.0 °F 73% 30.03 in 25.0 mi ENE 8.1 mph - N/A   Mostly Cloudy
8:00 AM 14.0 °F 0.5 °F 3.2 °F 62% 30.01 in 45.0 mi ENE 11.5 mph 19.6 mph N/A   Mostly Cloudy
9:00 AM 14.0 °F 1.2 °F 3.2 °F 62% 29.98 in 45.0 mi NE 10.4 mph 21.9 mph N/A   Overcast
10:00 AM 15.8 °F 1.4 °F 5.0 °F 62% 29.91 in 45.0 mi ENE 13.8 mph 23.0 mph N/A   Overcast
11:00 AM 17.6 °F 5.7 °F 6.8 °F 63% 29.88 in 35.0 mi NE 10.4 mph 19.6 mph N/A   Overcast
12:00 PM 17.6 °F 3.2 °F 6.8 °F 63% 29.82 in 25.0 mi ENE 15.0 mph 25.3 mph N/A   Overcast
1:00 PM 19.4 °F 6.6 °F 8.6 °F 63% 29.79 in 40.0 mi NE 12.7 mph 20.7 mph N/A   Overcast
2:00 PM 21.2 °F 10.9 °F 10.4 °F 63% 29.74 in 25.0 mi ENE 9.2 mph 18.4 mph N/A   Overcast
3:00 PM 23.0 °F 13.9 °F 10.4 °F 59% 29.71 in 25.0 mi NE 8.1 mph - N/A   Overcast
3:08 PM 23.0 °F 15.8 °F 10.4 °F 59% 29.70 in 15.0 mi NE 5.8 mph - N/A Snow Light Snow
4:00 PM 23.0 °F 14.7 °F 10.4 °F 59% 29.69 in 20.0 mi NE 6.9 mph - N/A Snow Light Snow
5:00 PM 24.8 °F 19.1 °F 12.2 °F 59% 29.68 in 20.0 mi ENE 4.6 mph - N/A Snow Light Snow
5:44 PM 23.0 °F 18.4 °F 14.0 °F 68% 29.67 in 2.5 mi NNE 3.5 mph - N/A Snow Light Snow
6:00 PM 23.0 °F 17.0 °F 15.8 °F 74% 29.67 in 4.0 mi NE 4.6 mph - N/A Snow Light Snow
7:18 PM 23.0 °F 17.0 °F 21.2 °F 93% 29.66 in 0.8 mi NNE 4.6 mph - N/A Snow Light Snow
7:46 PM 23.0 °F 17.0 °F 21.2 °F 93% 29.64 in 1.2 mi NNE 4.6 mph - N/A Snow Light Snow
8:00 PM 23.0 °F 18.4 °F 21.2 °F 93% 29.65 in 2.0 mi ENE 3.5 mph - N/A Snow Light Snow
8:53 PM 24.8 °F 19.1 °F 23.0 °F 93% 29.63 in 0.8 mi NNE 4.6 mph - N/A Snow Light Snow
9:00 PM 24.8 °F 20.5 °F 23.0 °F 93% 29.63 in 0.8 mi NE 3.5 mph - N/A Snow Light Snow
10:00 PM 24.8 °F - 23.0 °F 93% 29.63 in 0.8 mi Calm Calm - N/A Snow Light Snow
11:00 PM 24.8 °F 20.5 °F 23.0 °F 93% 29.62 in 0.8 mi South 3.5 mph - N/A Snow Light Snow